ONEWEB-0269 (48987 NORAD) Tracking and Keplerian Element Data

This shows tracking and keplerian element data for the satellite.

Feedback or suggestion? Click here.




ElementValue
Catalog48987
NameONEWEB-0269
Epoch Orbit361
Epoch Day210.91668981
Epoch Year2021
RAAN227.5159
Inclination87.4602
Eccentricity0.000739
Argument of Perigee143.1057
Mean Anonmoly347.2133
Mean Motion15.03691553
Decay Rate-0.01344367
L11 48987U 21060W 21210.91668981 -.01344367 00000-0 -10671+0 0 9993
L22 48987 87.4602 227.5159 0007390 143.1057 347.2133 15.03691553 3617

Live tracking and technical data element details for ONEWEB-0269 (NORAD 48987). ONEWEB-0269 can be tracked NOW for your location showing map with azimuth and elevation plus other details from your city location.

Track the satellite on the map from your city or location and see movement details for azimuth, elevation, latitude, longitude, range, height, and movement on the map or in text.







IsCatalogInMostPopularTable: catalog: 48987, numindb: 6
Update: records affected: 1



GetName: 48987 ONEWEB-0269

Hit Count: updated at: Sat, 31 Jul 2021 14:21:15 GMT